Regional Weather Roundup
Issued by NWS

Home | Current Version | Previous Version | Graphics & Text | Print | Product List | Glossary On
Versions: 1 2 3 4 5 6 7 8 9 10 11 12 13 14 15 16 17 18 19 20 21 22 23 24 25 26 27 28 29 30 31 32 33 34 35 36 37 38 39 40 41 42 43 44 45 46 47 48 49 50
000
ASUS43 KIND 260609
RWRIN

WEATHER ROUNDUP FOR INDIANA
NATIONAL WEATHER SERVICE INDIANAPOLIS IN
200 AM EDT SAT JUL 26 2014

NOTE: "FAIR" INDICATES FEW OR NO CLOUDS BELOW 12,000 FEET WITH NO
SIGNIFICANT WEATHER AND/OR OBSTRUCTIONS TO VISIBILITY.

* - STATION DOES NOT REPORT WEATHER SUCH AS PRECIPITATION OR FOG.

+ - STATION NOT QUALITY CONTROLLED BY THE NATIONAL WEATHER SERVICE.
    USE DATA WITH CAUTION...ESPECIALLY DEWPOINT AND RELATIVE
    HUMIDITY OBSERVATIONS.

INZ001>003-010>013-019-020-260700-
NORTHWEST INDIANA

CITY           SKY/WX    TMP DP  RH WIND       PRES   REMARKS
GARY /AIRPORT/ CLOUDY    70  60  69 CALM      29.92F
KNOX *+        MOCLDY    63  59  86 CALM      29.93F
LA PORTE +     CLEAR     61  58  88 CALM      29.95S
6HR MIN TEMP:  61; 6HR MAX TEMP:  70;

MICHIGAN CITY+ CLEAR     61  55  82 CALM      29.94F
MONTICELLO +   CLOUDY    68  59  73 S7        29.94F
RENSSELAER +   CLOUDY    68  63  83 S6        29.94F
VALPARAISO     CLOUDY    65  59  81 CALM      29.94F
6HR MIN TEMP:  63; 6HR MAX TEMP:  71;


$$

LMZ046-743>745-260700-
SOUTHERN LAKE MICHIGAN

STATION/POSITION TIME  TEMP WIND        PRES
                       AIR  DIR/SP/G
                 (UTC) (F)  (DEG/KT/KT) (MB)
MICHIGAN CITY    0600   65  100/  3/  4   N/A

$$

INZ004-005-014>016-021>024-260700-
NORTH CENTRAL INDIANA

CITY           SKY/WX    TMP DP  RH WIND       PRES   REMARKS
GOSHEN         CLEAR     62  57  83 SE3       29.96F
6HR MIN TEMP:  62; 6HR MAX TEMP:  72;

LOGANSPORT +   CLOUDY    64  59  82 S5        29.96F
PERU/GRISSOM   CLOUDY    67  64  90 S6        29.96F
6HR MIN TEMP:  65; 6HR MAX TEMP:  71;

ROCHESTER +    PTCLDY    66  61  82 SE5       29.95F
SOUTH BEND     MOCLDY    65  58  78 SE6       29.95F
6HR MIN TEMP:  65; 6HR MAX TEMP:  72;

WARSAW +       CLEAR     61  55  82 CALM      29.96F

$$

INZ006>009-017-018-025>027-260700-
NORTHEAST INDIANA

CITY           SKY/WX    TMP DP  RH WIND       PRES   REMARKS
ANGOLA *+      CLEAR     59  57  94 CALM      29.98F
AUBURN +       CLEAR     59  54  82 CALM      29.99F
FORT WAYNE     MOCLDY    63  57  81 S6        29.98F
6HR MIN TEMP:  62; 6HR MAX TEMP:  71;

HUNTINGTON +   CLEAR     63  58  84 CALM      29.97F
6HR MIN TEMP:  62; 6HR MAX TEMP:  70;


$$

INZ028-029-035-036-043>045-051>053-260700-
WEST CENTRAL INDIANA

CITY           SKY/WX    TMP DP  RH WIND       PRES   REMARKS
GREENCASTLE +  CLOUDY    64  61  88 CALM      29.99F
LAFAYETTE      CLOUDY    68  59  73 SW6       29.95F
6HR MIN TEMP:  68; 6HR MAX TEMP:  72;

TERRE HAUTE    CLOUDY    67  61  81 S7        29.97F
6HR MIN TEMP:  61; 6HR MAX TEMP:  73;


$$

INZ030>032-037>040-046>048-054>057-064-065-260700-
CENTRAL INDIANA

CITY           SKY/WX    TMP DP  RH WIND       PRES   REMARKS
CP ATTERBURY + CLOUDY    64  61  88 CALM      30.00F
INDIANAPOLIS   CLOUDY    69  60  73 S6        29.98F
6HR MIN TEMP:  69; 6HR MAX TEMP:  72;

-EAGLE CREEK   CLOUDY    69  60  73 S3        29.98F
6HR MIN TEMP:  69; 6HR MAX TEMP:  73;

KOKOMO *+      CLOUDY    66  61  82 S9        29.96F
MARION +       CLOUDY    64  59  85 S3        29.98F
MT COMFORT *+  CLOUDY    66  66 100 S3        29.99F
SHELBYVILLE    CLOUDY    70  62  76 S6        29.99F
6HR MIN TEMP:  67; 6HR MAX TEMP:  74;

ZIONSVILLE +   CLOUDY    69  59  69 S5        29.99F
6HR MIN TEMP:  67; 6HR MAX TEMP:  74;


$$

INZ033-034-041-042-049-050-058-059-260700-
EAST CENTRAL INDIANA

CITY           SKY/WX    TMP DP  RH WIND       PRES   REMARKS
MUNCIE         MOCLDY    68  58  70 S6        29.99F
6HR MIN TEMP:  66; 6HR MAX TEMP:  71;


$$

INZ060-061-067>069-081>083-085>088-260700-
SOUTHWEST INDIANA

CITY           SKY/WX    TMP DP  RH WIND       PRES   REMARKS
EVANSVILLE     CLEAR     64  60  87 CALM      30.01S
6HR MIN TEMP:  64; 6HR MAX TEMP:  76;

HUNTINGBURG *+ CLEAR     63  57  82 CALM      30.02S
6HR MIN TEMP:  63; 6HR MAX TEMP:  75;

WASHINGTON +   CLEAR     61  60  98 S7        29.99F
6HR MIN TEMP:  59; 6HR MAX TEMP:  74;


$$

INZ062-063-066-070>080-084-089>092-260700-
SOUTH CENTRAL AND SOUTHEAST INDIANA

CITY           SKY/WX    TMP DP  RH WIND       PRES   REMARKS
BLOOMINGTON    CLOUDY    64  61  90 CALM      30.00F
6HR MIN TEMP:  61; 6HR MAX TEMP:  72;

SEYMOUR +      MOCLDY    61  54  77 CALM      30.00

$$




USA.gov is the U.S. government's official web portal to all federal, state and local government web resources and services.